TimeEST,TemperatureF,Dew PointF,Humidity,Sea Level PressureIn,VisibilityMPH,Wind Direction,Wind SpeedMPH,Gust SpeedMPH,PrecipitationIn,Events,Conditions,WindDirDegrees,DateUTC
12:54 AM,36.0,26.1,67,30.63,10.0,Calm,Calm,-,N/A,,Clear,0,2013-11-05 05:54:00
1:54 AM,37.0,27.0,67,30.62,10.0,NNE,4.6,-,N/A,,Clear,30,2013-11-05 06:54:00
2:54 AM,36.0,28.0,73,30.60,10.0,Calm,Calm,-,N/A,,Clear,0,2013-11-05 07:54:00
3:54 AM,33.1,28.0,82,30.61,10.0,North,3.5,-,N/A,,Clear,360,2013-11-05 08:54:00
4:54 AM,35.1,28.0,76,30.61,10.0,Calm,Calm,-,N/A,,Clear,0,2013-11-05 09:54:00
5:54 AM,35.1,30.0,82,30.63,10.0,Calm,Calm,-,N/A,,Clear,0,2013-11-05 10:54:00
6:54 AM,37.0,30.0,76,30.63,9.0,NNE,3.5,-,N/A,,Clear,20,2013-11-05 11:54:00
7:54 AM,39.9,32.0,73,30.63,10.0,Calm,Calm,-,N/A,,Clear,0,2013-11-05 12:54:00
8:54 AM,46.9,35.1,63,30.63,10.0,Variable,3.5,-,N/A,,Clear,0,2013-11-05 13:54:00
9:54 AM,52.0,39.0,61,30.63,10.0,ENE,4.6,-,N/A,,Clear,70,2013-11-05 14:54:00
10:54 AM,55.9,39.9,55,30.62,10.0,SE,8.1,-,N/A,,Scattered Clouds,130,2013-11-05 15:54:00
11:54 AM,57.0,39.0,51,30.60,10.0,Calm,Calm,-,N/A,,Mostly Cloudy,0,2013-11-05 16:54:00
12:54 PM,59.0,39.0,48,30.57,10.0,ESE,4.6,-,N/A,,Mostly Cloudy,110,2013-11-05 17:54:00
1:54 PM,57.9,37.9,47,30.56,10.0,Variable,3.5,-,N/A,,Scattered Clouds,0,2013-11-05 18:54:00
2:54 PM,59.0,37.9,46,30.54,10.0,Variable,3.5,-,N/A,,Clear,0,2013-11-05 19:54:00
3:54 PM,55.9,39.0,53,30.53,10.0,Variable,4.6,-,N/A,,Mostly Cloudy,0,2013-11-05 20:54:00
4:54 PM,54.0,41.0,62,30.53,10.0,Variable,6.9,-,N/A,,Mostly Cloudy,0,2013-11-05 21:54:00
5:54 PM,52.0,41.0,66,30.54,10.0,SE,4.6,-,N/A,,Overcast,130,2013-11-05 22:54:00
6:54 PM,50.0,41.0,71,30.55,10.0,SE,4.6,-,N/A,,Mostly Cloudy,130,2013-11-05 23:54:00
7:54 PM,46.9,41.0,80,30.54,10.0,ESE,3.5,-,N/A,,Clear,110,2013-11-06 00:54:00
8:54 PM,45.0,39.9,82,30.54,10.0,Calm,Calm,-,N/A,,Clear,0,2013-11-06 01:54:00
9:54 PM,41.0,39.0,93,30.52,10.0,Calm,Calm,-,N/A,,Clear,0,2013-11-06 02:54:00
10:54 PM,41.0,39.0,93,30.49,10.0,Calm,Calm,-,N/A,,Clear,0,2013-11-06 03:54:00
11:54 PM,39.0,37.0,93,30.50,10.0,Calm,Calm,-,N/A,,Clear,0,2013-11-06 04:54:00